Regional Weather Roundup
Issued by NWS Charleston, WV

Home | Current Version | Previous Version | Graphics & Text | Print | Product List | Glossary On
Versions: 1 2 3 4 5 6 7 8 9 10 11 12 13 14 15 16 17 18 19 20 21 22 23 24 25 26 27
000
ASUS41 KRLX 220310
RWRRLX
West Virginia Regional Weather Roundup
National Weather Service Charleston WV
1100 PM EDT THU SEP 21 2017

Note: "fair" indicates few or no clouds below 12,000 feet with no
significant weather and/or obstructions to visibility.

WVZ003-220400-
Northern Panhandle of West Virginia

CITY           SKY/WX    TMP DP  RH WIND       PRES   REMARKS
WHEELING       CLEAR     69  64  84 CALM      30.11S
$$

WVZ009-220400-
Northwest West Virginia

CITY           SKY/WX    TMP DP  RH WIND       PRES   REMARKS
PARKERSBURG    CLEAR     69  67  93 CALM      30.12S
$$

WVZ006-220400-
Western West Virginia

CITY           SKY/WX    TMP DP  RH WIND       PRES   REMARKS
HUNTINGTON     CLEAR     71  68  90 CALM      30.08R
$$

WVZ015-220400-
West Central West Virginia

CITY           SKY/WX    TMP DP  RH WIND       PRES   REMARKS
CHARLESTON     CLEAR     69  66  90 CALM      30.10R
$$

WVZ022-031-220400-
North Central West Virginia

CITY           SKY/WX    TMP DP  RH WIND       PRES   REMARKS
CLARKSBURG     CLEAR     65  62  90 CALM      30.12R
MORGANTOWN     CLEAR     67  62  84 CALM      30.13S
$$

WVZ025-035-042-045-220400-
Southern West Virginia

CITY           SKY/WX    TMP DP  RH WIND       PRES   REMARKS
BECKLEY        CLEAR     65  62  90 E3        30.17R
LOGAN            N/A     70  66  88 CALM      30.12S
BLUEFIELD      CLEAR     67  60  78 CALM      30.19R
LEWISBURG      PTCLDY    66  61  85 N5        30.17R
$$

WVZ047-220400-
Northern Mountains of West Virginia

CITY           SKY/WX    TMP DP  RH WIND       PRES   REMARKS
ELKINS         CLEAR     59  56  89 CALM      30.18R
$$

WVZ052-220400-
Eastern Panhandle of West Virginia

CITY           SKY/WX    TMP DP  RH WIND       PRES   REMARKS
MARTINSBURG    CLOUDY    65  61  87 CALM      30.07R
PETERSBURG     CLEAR     66  64  93 CALM      30.12R
$$




USA.gov is the U.S. government's official web portal to all federal, state and local government web resources and services.